"read_dt","SO2 (ppb)","flags","PMT voltage (V)","lamp voltage (V)","lamp intensity (Hz)","internal temp (C)","react chamber temp (C)","sample flow (l/min)","pres (mmHg)","SO2 bkg (ppb)","SO2 coefficient"
2014-12-28 00:00:00,2331E-3,5C000000,-0724,0836,12097,027.8,045.4,0.451,738.4,01.18,0.508
2014-12-28 00:01:00,2383E-3,5C000000,-0724,0836,12245,027.7,045.4,0.451,738.4,01.18,0.508
2014-12-28 00:02:00,2277E-3,5C000000,-0724,0836,12172,027.7,045.4,0.451,738.4,01.18,0.508
2014-12-28 00:03:00,2408E-3,5C000000,-0724,0837,12114,027.7,045.4,0.451,738.3,01.18,0.508
2014-12-28 00:04:00,2262E-3,5C000000,-0724,0836,12202,027.7,045.4,0.452,738.3,01.18,0.508
2014-12-28 00:05:00,2280E-3,5C000000,-0724,0836,12053,027.8,045.4,0.451,738.3,01.18,0.508
2014-12-28 00:06:00,2297E-3,5C000000,-0724,0837,12218,027.8,045.4,0.451,738.3,01.18,0.508
2014-12-28 00:07:00,2316E-3,5C000000,-0724,0836,12005,027.7,045.4,0.451,738.3,01.18,0.508
2014-12-28 00:08:00,2424E-3,5C000000,-0724,0836,12207,027.8,045.4,0.451,738.3,01.18,0.508
2014-12-28 00:09:00,2393E-3,5C000000,-0724,0836,12037,027.7,045.4,0.451,738.3,01.18,0.508
2014-12-28 00:10:00,2363E-3,5C000000,-0724,0837,12062,027.7,045.4,0.451,738.3,01.18,0.508
2014-12-28 00:11:00,2325E-3,5C000000,-0724,0836,12036,027.7,045.4,0.451,738.3,01.18,0.508
2014-12-28 00:12:00,2387E-3,5C000000,-0724,0836,12080,027.7,045.4,0.451,738.3,01.18,0.508
2014-12-28 00:13:00,2317E-3,5C000000,-0724,0837,11900,027.8,045.4,0.451,738.3,01.18,0.508
2014-12-28 00:14:00,2366E-3,5C000000,-0724,0837,12130,027.7,045.4,0.451,738.3,01.18,0.508
2014-12-28 00:15:00,2452E-3,5C000000,-0724,0837,12195,027.7,045.4,0.451,738.3,01.18,0.508
2014-12-28 00:16:00,2345E-3,5C000000,-0724,0836,12132,027.7,045.4,0.451,738.3,01.18,0.508
2014-12-28 00:17:00,2315E-3,5C000000,-0724,0837,12237,027.7,045.4,0.451,738.3,01.18,0.508
2014-12-28 00:18:00,2406E-3,5C000000,-0724,0837,12010,027.7,045.4,0.451,738.3,01.18,0.508
2014-12-28 00:19:00,2169E-3,5C000000,-0724,0837,12136,027.7,045.4,0.451,738.3,01.18,0.508
2014-12-28 00:20:00,2433E-3,5C000000,-0724,0837,12170,027.8,045.4,0.451,738.3,01.18,0.508
2014-12-28 00:21:00,2396E-3,5C000000,-0724,0835,12155,027.7,045.4,0.451,738.3,01.18,0.508
2014-12-28 00:22:00,2298E-3,5C000000,-0724,0835,12312,027.8,045.4,0.451,738.3,01.18,0.508
2014-12-28 00:23:00,2437E-3,5C000000,-0724,0836,12102,027.8,045.4,0.451,738.3,01.18,0.508
2014-12-28 00:24:00,2368E-3,5C000000,-0724,0836,12074,027.7,045.4,0.451,738.2,01.18,0.508
2014-12-28 00:25:00,2332E-3,5C000000,-0724,0835,12228,027.7,045.4,0.451,738.2,01.18,0.508
2014-12-28 00:26:00,2355E-3,5C000000,-0724,0836,12126,027.7,045.4,0.451,738.2,01.18,0.508
2014-12-28 00:27:00,2323E-3,5C000000,-0724,0836,12125,027.7,045.4,0.451,738.2,01.18,0.508
2014-12-28 00:28:00,2529E-3,5C000000,-0724,0837,12162,027.7,045.4,0.451,738.2,01.18,0.508
2014-12-28 00:29:00,2244E-3,5C000000,-0724,0837,12113,027.7,045.4,0.451,738.2,01.18,0.508
2014-12-28 00:30:00,2287E-3,5C000000,-0724,0837,12125,027.7,045.4,0.451,738.2,01.18,0.508
2014-12-28 00:31:00,2424E-3,5C000000,-0724,0836,11961,027.7,045.4,0.451,738.2,01.18,0.508
2014-12-28 00:32:00,2409E-3,5C000000,-0724,0836,12328,027.7,045.4,0.451,738.2,01.18,0.508
2014-12-28 00:33:00,2417E-3,5C000000,-0724,0836,12230,027.7,045.4,0.451,738.1,01.18,0.508
2014-12-28 00:34:00,2441E-3,5C000000,-0724,0836,12179,027.8,045.5,0.451,738.1,01.18,0.508
2014-12-28 00:35:00,2328E-3,5C000000,-0724,0835,12227,027.8,045.4,0.451,738.1,01.18,0.508
2014-12-28 00:36:00,2423E-3,5C000000,-0724,0836,12038,027.8,045.4,0.451,738.1,01.18,0.508
2014-12-28 00:37:00,2311E-3,5C000000,-0724,0836,12008,027.8,045.4,0.451,738.1,01.18,0.508
2014-12-28 00:38:00,2385E-3,5C000000,-0724,0836,12155,027.7,045.4,0.451,738.1,01.18,0.508
2014-12-28 00:39:00,2443E-3,5C000000,-0724,0837,12169,027.7,045.4,0.451,738.1,01.18,0.508
2014-12-28 00:40:00,2352E-3,5C000000,-0724,0837,12224,027.7,045.4,0.451,738.1,01.18,0.508
2014-12-28 00:41:00,2393E-3,5C000000,-0724,0836,12007,027.7,045.4,0.451,738.1,01.18,0.508
2014-12-28 00:42:00,2295E-3,5C000000,-0724,0837,12235,027.8,045.4,0.451,738.1,01.18,0.508
2014-12-28 00:43:00,2304E-3,5C000000,-0724,0836,12250,027.7,045.4,0.451,738.0,01.18,0.508
2014-12-28 00:44:00,2303E-3,5C000000,-0724,0837,12205,027.7,045.4,0.451,738.0,01.18,0.508
2014-12-28 00:45:00,2346E-3,5C000000,-0724,0836,12112,027.7,045.4,0.451,738.1,01.18,0.508
2014-12-28 00:46:00,2429E-3,5C000000,-0724,0836,12143,027.7,045.4,0.451,738.0,01.18,0.508
2014-12-28 00:47:00,2353E-3,5C000000,-0724,0836,12207,027.8,045.4,0.451,738.1,01.18,0.508
2014-12-28 00:48:00,2345E-3,5C000000,-0724,0837,12116,027.7,045.4,0.451,738.1,01.18,0.508
2014-12-28 00:49:00,2359E-3,5C000000,-0724,0837,12241,027.7,045.4,0.451,738.1,01.18,0.508
2014-12-28 00:50:00,2362E-3,5C000000,-0724,0837,12083,027.7,045.4,0.451,738.1,01.18,0.508
2014-12-28 00:51:00,2465E-3,5C000000,-0724,0837,12101,027.7,045.4,0.451,738.1,01.18,0.508
2014-12-28 00:52:00,2339E-3,5C000000,-0724,0837,12283,027.7,045.4,0.451,738.1,01.18,0.508
2014-12-28 00:53:00,2395E-3,5C000000,-0724,0837,12041,027.7,045.4,0.451,738.1,01.18,0.508
2014-12-28 00:54:00,2245E-3,5C000000,-0724,0836,12198,027.7,045.4,0.451,738.0,01.18,0.508
2014-12-28 00:55:00,2410E-3,5C000000,-0724,0836,12102,027.7,045.4,0.451,738.0,01.18,0.508
2014-12-28 00:56:00,2471E-3,5C000000,-0724,0836,11930,027.7,045.4,0.451,738.0,01.18,0.508
2014-12-28 00:57:00,2355E-3,5C000000,-0724,0838,12144,027.7,045.4,0.451,738.0,01.18,0.508
2014-12-28 00:58:00,2443E-3,5C000000,-0724,0837,12192,027.7,045.4,0.451,738.0,01.18,0.508
2014-12-28 00:59:00,2482E-3,5C000000,-0724,0836,12157,027.7,045.5,0.451,738.0,01.18,0.508
2014-12-28 01:00:00,2356E-3,5C000000,-0724,0836,12092,027.7,045.5,0.451,738.0,01.18,0.508
2014-12-28 01:01:00,2503E-3,5C000000,-0724,0837,12067,027.7,045.4,0.451,737.9,01.18,0.508
2014-12-28 01:02:00,2393E-3,5C000000,-0724,0836,11999,027.7,045.4,0.451,738.0,01.18,0.508
2014-12-28 01:03:00,2413E-3,5C000000,-0724,0836,11939,027.7,045.4,0.451,737.9,01.18,0.508
2014-12-28 01:04:00,2293E-3,5C000000,-0724,0836,12152,027.7,045.4,0.451,737.9,01.18,0.508
2014-12-28 01:05:00,2289E-3,5C000000,-0724,0836,12163,027.7,045.4,0.451,737.9,01.18,0.508
2014-12-28 01:06:00,2317E-3,5C000000,-0724,0836,12280,027.7,045.4,0.451,737.9,01.18,0.508
2014-12-28 01:07:00,2440E-3,5C000000,-0724,0837,12153,027.7,045.4,0.451,737.8,01.18,0.508
2014-12-28 01:08:00,2308E-3,5C000000,-0724,0837,12041,027.7,045.4,0.451,737.8,01.18,0.508
2014-12-28 01:09:00,2243E-3,5C000000,-0724,0836,12167,027.7,045.4,0.451,737.8,01.18,0.508
2014-12-28 01:10:00,2239E-3,5C000000,-0724,0837,12108,027.7,045.4,0.451,737.8,01.18,0.508
2014-12-28 01:11:00,2507E-3,5C000000,-0724,0837,12252,027.7,045.4,0.451,737.8,01.18,0.508
2014-12-28 01:12:00,2288E-3,5C000000,-0724,0837,11935,027.7,045.4,0.451,737.8,01.18,0.508
2014-12-28 01:13:00,2490E-3,5C000000,-0724,0836,12197,027.7,045.4,0.451,737.8,01.18,0.508
2014-12-28 01:14:00,2378E-3,5C000000,-0724,0836,12156,027.7,045.4,0.451,737.8,01.18,0.508
2014-12-28 01:15:00,2340E-3,5C000000,-0724,0836,12027,027.6,045.4,0.451,737.8,01.18,0.508
2014-12-28 01:16:00,2357E-3,5C000000,-0724,0837,12123,027.6,045.4,0.451,737.7,01.18,0.508
2014-12-28 01:17:00,2472E-3,5C000000,-0724,0836,12060,027.7,045.5,0.451,737.7,01.18,0.508
2014-12-28 01:18:00,2423E-3,5C000000,-0724,0836,12090,027.7,045.4,0.451,737.7,01.18,0.508
2014-12-28 01:19:00,2536E-3,5C000000,-0724,0837,12148,027.7,045.4,0.451,737.7,01.18,0.508
2014-12-28 01:20:00,2398E-3,5C000000,-0724,0837,12082,027.6,045.4,0.451,737.7,01.18,0.508
2014-12-28 01:21:00,2366E-3,5C000000,-0724,0836,12171,027.6,045.4,0.451,737.7,01.18,0.508
2014-12-28 01:22:00,2258E-3,5C000000,-0724,0836,12119,027.7,045.4,0.451,737.6,01.18,0.508
2014-12-28 01:23:00,2316E-3,5C000000,-0724,0836,11982,027.7,045.4,0.451,737.6,01.18,0.508
2014-12-28 01:24:00,2381E-3,5C000000,-0724,0837,12186,027.7,045.4,0.451,737.6,01.18,0.508
2014-12-28 01:25:00,2407E-3,5C000000,-0724,0836,12128,027.7,045.4,0.451,737.6,01.18,0.508
2014-12-28 01:26:00,2341E-3,5C000000,-0724,0837,12165,027.7,045.4,0.451,737.6,01.18,0.508
2014-12-28 01:27:00,2409E-3,5C000000,-0724,0837,12224,027.7,045.4,0.451,737.6,01.18,0.508
2014-12-28 01:28:00,2448E-3,5C000000,-0724,0836,12157,027.7,045.4,0.451,737.6,01.18,0.508
2014-12-28 01:29:00,2444E-3,5C000000,-0724,0837,12111,027.7,045.4,0.451,737.6,01.18,0.508
2014-12-28 01:30:00,2381E-3,5C000000,-0724,0836,12278,027.7,045.4,0.451,737.6,01.18,0.508
2014-12-28 01:31:00,2395E-3,5C000000,-0724,0837,12152,027.7,045.4,0.451,737.6,01.18,0.508
2014-12-28 01:32:00,2423E-3,5C000000,-0724,0837,12116,027.7,045.4,0.451,737.6,01.18,0.508
2014-12-28 01:33:00,2389E-3,5C000000,-0724,0836,12099,027.7,045.4,0.451,737.6,01.18,0.508
2014-12-28 01:34:00,2437E-3,5C000000,-0724,0837,12045,027.7,045.4,0.451,737.6,01.18,0.508
2014-12-28 01:35:00,2519E-3,5C000000,-0724,0836,12080,027.7,045.4,0.451,737.6,01.18,0.508
2014-12-28 01:36:00,2302E-3,5C000000,-0724,0836,12190,027.7,045.4,0.451,737.5,01.18,0.508
2014-12-28 01:37:00,2385E-3,5C000000,-0724,0836,12074,027.7,045.4,0.451,737.5,01.18,0.508
2014-12-28 01:38:00,2384E-3,5C000000,-0724,0837,12123,027.7,045.4,0.451,737.5,01.18,0.508
2014-12-28 01:39:00,2494E-3,5C000000,-0724,0836,12171,027.7,045.4,0.451,737.5,01.18,0.508
2014-12-28 01:40:00,2493E-3,5C000000,-0724,0837,12177,027.7,045.4,0.451,737.5,01.18,0.508
2014-12-28 01:41:00,2445E-3,5C000000,-0724,0836,12112,027.7,045.4,0.451,737.5,01.18,0.508
2014-12-28 01:42:00,2400E-3,5C000000,-0724,0836,12073,027.7,045.4,0.451,737.5,01.18,0.508
2014-12-28 01:43:00,2550E-3,5C000000,-0724,0836,12246,027.7,045.4,0.451,737.5,01.18,0.508
2014-12-28 01:44:00,2415E-3,5C000000,-0724,0836,12185,027.6,045.4,0.451,737.5,01.18,0.508
2014-12-28 01:45:00,2375E-3,5C000000,-0724,0836,12273,027.7,045.4,0.451,737.5,01.18,0.508
2014-12-28 01:46:00,2475E-3,5C000000,-0724,0837,12232,027.7,045.4,0.451,737.5,01.18,0.508
2014-12-28 01:47:00,2319E-3,5C000000,-0724,0836,12221,027.7,045.4,0.451,737.5,01.18,0.508
2014-12-28 01:48:00,2532E-3,5C000000,-0724,0836,12209,027.6,045.4,0.451,737.4,01.18,0.508
2014-12-28 01:49:00,2371E-3,5C000000,-0724,0836,12253,027.6,045.4,0.451,737.4,01.18,0.508
2014-12-28 01:50:00,2306E-3,5C000000,-0724,0837,12159,027.6,045.4,0.451,737.4,01.18,0.508
2014-12-28 01:51:00,2324E-3,5C000000,-0724,0836,12135,027.7,045.4,0.451,737.4,01.18,0.508
2014-12-28 01:52:00,2357E-3,5C000000,-0724,0836,12084,027.7,045.4,0.451,737.4,01.18,0.508
2014-12-28 01:53:00,2345E-3,5C000000,-0724,0837,12064,027.6,045.4,0.451,737.4,01.18,0.508
2014-12-28 01:54:00,2427E-3,5C000000,-0724,0837,12228,027.6,045.4,0.451,737.4,01.18,0.508
2014-12-28 01:55:00,2480E-3,5C000000,-0724,0835,12034,027.6,045.4,0.451,737.4,01.18,0.508
2014-12-28 01:56:00,2331E-3,5C000000,-0724,0836,12075,027.6,045.4,0.451,737.4,01.18,0.508
2014-12-28 01:57:00,2404E-3,5C000000,-0724,0835,12153,027.6,045.4,0.451,737.4,01.18,0.508
2014-12-28 01:58:00,2361E-3,5C000000,-0724,0835,12360,027.6,045.4,0.451,737.4,01.18,0.508
2014-12-28 01:59:00,2302E-3,5C000000,-0724,0836,12078,027.6,045.4,0.451,737.4,01.18,0.508
2014-12-28 02:00:00,2502E-3,5C000000,-0724,0836,11943,027.6,045.4,0.451,737.4,01.18,0.508
2014-12-28 02:01:00,2401E-3,5C000000,-0724,0836,12101,027.6,045.4,0.451,737.4,01.18,0.508
2014-12-28 02:02:00,2311E-3,5C000000,-0724,0836,12075,027.6,045.4,0.451,737.4,01.18,0.508
2014-12-28 02:03:00,2336E-3,5C000000,-0724,0836,12162,027.6,045.4,0.451,737.4,01.18,0.508
2014-12-28 02:04:00,2532E-3,5C000000,-0724,0836,12147,027.6,045.4,0.451,737.3,01.18,0.508
2014-12-28 02:05:00,2517E-3,5C000000,-0724,0835,12010,027.6,045.4,0.451,737.4,01.18,0.508
2014-12-28 02:06:00,2393E-3,5C000000,-0724,0836,12289,027.6,045.4,0.451,737.4,01.18,0.508
2014-12-28 02:07:00,2403E-3,5C000000,-0724,0836,12103,027.6,045.4,0.451,737.4,01.18,0.508
2014-12-28 02:08:00,2481E-3,5C000000,-0724,0836,12007,027.6,045.4,0.451,737.4,01.18,0.508
2014-12-28 02:09:00,2382E-3,5C000000,-0724,0836,12068,027.6,045.4,0.451,737.4,01.18,0.508
2014-12-28 02:10:00,2431E-3,5C000000,-0724,0836,12214,027.6,045.4,0.451,737.4,01.18,0.508
2014-12-28 02:11:00,2563E-3,5C000000,-0724,0835,12058,027.6,045.4,0.451,737.3,01.18,0.508
2014-12-28 02:12:00,2428E-3,5C000000,-0724,0836,12160,027.6,045.4,0.451,737.3,01.18,0.508
2014-12-28 02:13:00,2367E-3,5C000000,-0724,0836,12306,027.6,045.4,0.451,737.3,01.18,0.508
2014-12-28 02:14:00,2456E-3,5C000000,-0724,0835,12254,027.7,045.4,0.451,737.3,01.18,0.508
2014-12-28 02:15:00,2523E-3,5C000000,-0724,0836,12183,027.7,045.4,0.451,737.3,01.18,0.508
2014-12-28 02:16:00,2521E-3,5C000000,-0724,0836,12039,027.6,045.4,0.451,737.3,01.18,0.508
2014-12-28 02:17:00,2339E-3,5C000000,-0724,0836,12072,027.6,045.4,0.451,737.3,01.18,0.508
2014-12-28 02:18:00,2449E-3,5C000000,-0724,0836,12140,027.6,045.4,0.451,737.3,01.18,0.508
2014-12-28 02:19:00,2420E-3,5C000000,-0724,0836,12080,027.6,045.4,0.451,737.3,01.18,0.508
2014-12-28 02:20:00,2350E-3,5C000000,-0724,0836,12307,027.6,045.4,0.451,737.2,01.18,0.508
2014-12-28 02:21:00,2456E-3,5C000000,-0724,0836,12217,027.6,045.4,0.451,737.2,01.18,0.508
2014-12-28 02:22:00,2520E-3,5C000000,-0724,0836,12335,027.6,045.4,0.451,737.2,01.18,0.508
2014-12-28 02:23:00,2453E-3,5C000000,-0724,0836,12004,027.6,045.4,0.451,737.2,01.18,0.508
2014-12-28 02:24:00,2341E-3,5C000000,-0724,0836,12192,027.6,045.4,0.451,737.2,01.18,0.508
2014-12-28 02:25:00,2634E-3,5C000000,-0724,0836,12147,027.6,045.4,0.451,737.2,01.18,0.508
2014-12-28 02:26:00,2465E-3,5C000000,-0724,0837,12103,027.6,045.4,0.451,737.2,01.18,0.508
2014-12-28 02:27:00,2472E-3,5C000000,-0724,0836,12088,027.6,045.4,0.451,737.2,01.18,0.508
2014-12-28 02:28:00,2475E-3,5C000000,-0724,0836,12270,027.6,045.4,0.451,737.2,01.18,0.508
2014-12-28 02:29:00,2323E-3,5C000000,-0724,0836,12150,027.7,045.4,0.451,737.2,01.18,0.508
2014-12-28 02:30:00,2471E-3,5C000000,-0724,0836,12245,027.7,045.4,0.451,737.2,01.18,0.508
2014-12-28 02:31:00,2438E-3,5C000000,-0724,0836,12033,027.7,045.4,0.451,737.2,01.18,0.508
2014-12-28 02:32:00,2346E-3,5C000000,-0724,0837,12072,027.7,045.4,0.451,737.1,01.18,0.508
2014-12-28 02:33:00,2359E-3,5C000000,-0724,0837,12138,027.6,045.4,0.451,737.1,01.18,0.508
2014-12-28 02:34:00,2417E-3,5C000000,-0724,0836,12185,027.6,045.4,0.451,737.1,01.18,0.508
2014-12-28 02:35:00,2403E-3,5C000000,-0724,0836,12182,027.6,045.4,0.451,737.1,01.18,0.508
2014-12-28 02:36:00,2396E-3,5C000000,-0724,0836,12160,027.6,045.4,0.451,737.1,01.18,0.508
2014-12-28 02:37:00,2418E-3,5C000000,-0724,0837,12183,027.6,045.4,0.451,737.1,01.18,0.508
2014-12-28 02:38:00,2508E-3,5C000000,-0724,0836,12202,027.6,045.4,0.451,737.0,01.18,0.508
2014-12-28 02:39:00,2449E-3,5C000000,-0724,0836,12142,027.6,045.4,0.451,737.1,01.18,0.508
2014-12-28 02:40:00,2398E-3,5C000000,-0724,0837,12055,027.6,045.4,0.451,737.0,01.18,0.508
2014-12-28 02:41:00,2524E-3,5C000000,-0724,0836,12186,027.7,045.4,0.451,737.0,01.18,0.508
2014-12-28 02:42:00,2392E-3,5C000000,-0724,0837,12124,027.6,045.4,0.451,737.0,01.18,0.508
2014-12-28 02:43:00,2398E-3,5C000000,-0724,0837,12049,027.7,045.4,0.451,737.0,01.18,0.508
2014-12-28 02:44:00,2395E-3,5C000000,-0724,0836,12076,027.7,045.4,0.451,737.0,01.18,0.508
2014-12-28 02:45:00,2399E-3,5C000000,-0724,0837,12099,027.6,045.4,0.451,737.0,01.18,0.508
2014-12-28 02:46:00,2546E-3,5C000000,-0724,0836,12252,027.6,045.4,0.451,737.0,01.18,0.508
2014-12-28 02:47:00,2499E-3,5C000000,-0724,0835,12178,027.6,045.4,0.451,737.0,01.18,0.508
2014-12-28 02:48:00,2427E-3,5C000000,-0724,0836,12141,027.6,045.4,0.451,737.0,01.18,0.508
2014-12-28 02:49:00,2471E-3,5C000000,-0724,0837,12070,027.6,045.4,0.451,737.0,01.18,0.508
2014-12-28 02:50:00,2486E-3,5C000000,-0724,0836,12123,027.7,045.4,0.451,737.0,01.18,0.508
2014-12-28 02:51:00,2507E-3,5C000000,-0724,0836,12144,027.6,045.4,0.451,737.0,01.18,0.508
2014-12-28 02:52:00,2510E-3,5C000000,-0724,0836,12098,027.6,045.4,0.451,737.0,01.18,0.508
2014-12-28 02:53:00,2394E-3,5C000000,-0724,0836,12104,027.6,045.4,0.451,737.0,01.18,0.508
2014-12-28 02:54:00,2542E-3,5C000000,-0724,0836,12217,027.6,045.4,0.451,736.9,01.18,0.508
2014-12-28 02:55:00,2548E-3,5C000000,-0724,0836,12222,027.6,045.4,0.451,736.9,01.18,0.508
2014-12-28 02:56:00,2246E-3,5C000000,-0724,0837,12062,027.5,045.4,0.451,736.9,01.18,0.508
2014-12-28 02:57:00,2349E-3,5C000000,-0724,0836,12113,027.6,045.4,0.451,736.9,01.18,0.508
2014-12-28 02:58:00,2316E-3,5C000000,-0724,0836,12196,027.6,045.4,0.451,736.9,01.18,0.508
2014-12-28 02:59:00,2326E-3,5C000000,-0724,0836,12102,027.6,045.5,0.451,736.9,01.18,0.508
2014-12-28 03:00:00,2360E-3,5C000000,-0724,0837,12179,027.6,045.5,0.451,736.8,01.18,0.508
2014-12-28 03:01:00,2461E-3,5C000000,-0724,0836,12313,027.7,045.4,0.451,736.8,01.18,0.508
2014-12-28 03:02:00,2453E-3,5C000000,-0724,0836,12171,027.6,045.4,0.451,736.8,01.18,0.508
2014-12-28 03:03:00,2386E-3,5C000000,-0724,0837,12195,027.6,045.4,0.451,736.8,01.18,0.508
2014-12-28 03:04:00,2421E-3,5C000000,-0724,0836,12065,027.6,045.4,0.451,736.8,01.18,0.508
2014-12-28 03:05:00,2448E-3,5C000000,-0724,0836,12270,027.6,045.4,0.451,736.8,01.18,0.508
2014-12-28 03:06:00,2467E-3,5C000000,-0724,0837,12128,027.6,045.4,0.451,736.8,01.18,0.508
2014-12-28 03:07:00,2505E-3,5C000000,-0724,0837,12130,027.6,045.4,0.451,736.8,01.18,0.508
2014-12-28 03:08:00,2485E-3,5C000000,-0724,0836,12125,027.6,045.4,0.451,736.8,01.18,0.508
2014-12-28 03:09:00,2433E-3,5C000000,-0724,0836,12138,027.6,045.4,0.451,736.8,01.18,0.508
2014-12-28 03:10:00,2441E-3,5C000000,-0724,0836,12122,027.6,045.4,0.451,736.8,01.18,0.508
2014-12-28 03:11:00,2505E-3,5C000000,-0724,0836,12173,027.6,045.4,0.451,736.9,01.18,0.508
2014-12-28 03:12:00,2371E-3,5C000000,-0724,0836,12125,027.6,045.4,0.451,736.9,01.18,0.508
2014-12-28 03:13:00,2423E-3,5C000000,-0724,0836,12059,027.6,045.4,0.451,736.9,01.18,0.508
2014-12-28 03:14:00,2421E-3,5C000000,-0724,0836,12216,027.6,045.4,0.451,736.9,01.18,0.508
2014-12-28 03:15:00,2381E-3,5C000000,-0724,0835,12137,027.6,045.4,0.451,736.9,01.18,0.508
2014-12-28 03:16:00,2460E-3,5C000000,-0724,0836,11893,027.6,045.4,0.451,736.8,01.18,0.508
2014-12-28 03:17:00,2487E-3,5C000000,-0724,0836,12058,027.6,045.4,0.451,736.9,01.18,0.508
2014-12-28 03:18:00,2500E-3,5C000000,-0724,0837,11981,027.6,045.4,0.451,736.9,01.18,0.508
2014-12-28 03:19:00,2487E-3,5C000000,-0724,0837,12163,027.6,045.4,0.451,736.9,01.18,0.508
2014-12-28 03:20:00,2458E-3,5C000000,-0724,0837,12019,027.6,045.4,0.451,736.9,01.18,0.508
2014-12-28 03:21:00,2359E-3,5C000000,-0724,0837,12122,027.6,045.4,0.451,736.9,01.18,0.508
2014-12-28 03:22:00,2569E-3,5C000000,-0724,0837,12032,027.6,045.4,0.451,736.9,01.18,0.508
2014-12-28 03:23:00,2333E-3,5C000000,-0724,0837,12306,027.6,045.4,0.451,736.9,01.18,0.508
2014-12-28 03:24:00,2464E-3,5C000000,-0724,0836,12147,027.6,045.4,0.451,736.9,01.18,0.508
2014-12-28 03:25:00,2580E-3,5C000000,-0724,0836,11946,027.6,045.4,0.451,736.9,01.18,0.508
2014-12-28 03:26:00,2425E-3,5C000000,-0724,0837,12329,027.6,045.4,0.451,736.9,01.18,0.508
2014-12-28 03:27:00,2421E-3,5C000000,-0724,0837,11998,027.6,045.4,0.451,736.9,01.18,0.508
2014-12-28 03:28:00,2357E-3,5C000000,-0724,0836,12095,027.5,045.4,0.451,736.9,01.18,0.508
2014-12-28 03:29:00,2370E-3,5C000000,-0724,0835,12076,027.5,045.4,0.451,736.9,01.18,0.508
2014-12-28 03:30:00,2418E-3,5C000000,-0724,0836,12156,027.5,045.4,0.451,736.9,01.18,0.508
2014-12-28 03:31:00,2486E-3,5C000000,-0724,0836,12195,027.5,045.4,0.451,736.8,01.18,0.508
2014-12-28 03:32:00,2439E-3,5C000000,-0724,0836,12236,027.5,045.4,0.451,736.8,01.18,0.508
2014-12-28 03:33:00,2637E-3,5C000000,-0724,0836,11997,027.5,045.4,0.451,736.8,01.18,0.508
2014-12-28 03:34:00,2497E-3,5C000000,-0724,0836,12160,027.5,045.4,0.451,736.8,01.18,0.508
2014-12-28 03:35:00,2342E-3,5C000000,-0724,0836,12107,027.4,045.4,0.451,736.8,01.18,0.508
2014-12-28 03:36:00,2513E-3,5C000000,-0724,0836,12230,027.4,045.4,0.451,736.7,01.18,0.508
2014-12-28 03:37:00,2500E-3,5C000000,-0724,0836,12246,027.4,045.4,0.451,736.7,01.18,0.508
2014-12-28 03:38:00,2683E-3,5C000000,-0724,0836,12118,027.4,045.4,0.451,736.7,01.18,0.508
2014-12-28 03:39:00,2622E-3,5C000000,-0724,0836,12061,027.5,045.4,0.452,736.7,01.18,0.508
2014-12-28 03:40:00,2421E-3,5C000000,-0724,0836,12246,027.5,045.4,0.452,736.7,01.18,0.508
2014-12-28 03:41:00,2472E-3,5C000000,-0724,0837,12111,027.6,045.4,0.451,736.7,01.18,0.508
2014-12-28 03:42:00,2463E-3,5C000000,-0724,0836,12146,027.6,045.4,0.451,736.7,01.18,0.508
2014-12-28 03:43:00,2351E-3,5C000000,-0724,0836,12138,027.6,045.4,0.451,736.7,01.18,0.508
2014-12-28 03:44:00,2497E-3,5C000000,-0724,0837,12146,027.7,045.4,0.451,736.7,01.18,0.508
2014-12-28 03:45:00,2492E-3,5C000000,-0724,0836,12270,027.8,045.4,0.451,736.7,01.18,0.508
2014-12-28 03:46:00,2526E-3,5C000000,-0724,0837,12058,027.8,045.4,0.451,736.6,01.18,0.508
2014-12-28 03:47:00,2411E-3,5C000000,-0724,0836,12117,027.9,045.4,0.451,736.7,01.18,0.508
2014-12-28 03:48:00,2523E-3,5C000000,-0724,0836,12115,027.9,045.4,0.451,736.7,01.18,0.508
2014-12-28 03:49:00,2400E-3,5C000000,-0724,0837,12278,028.0,045.4,0.451,736.6,01.18,0.508
2014-12-28 03:50:00,2503E-3,5C000000,-0724,0836,12218,028.0,045.4,0.451,736.7,01.18,0.508
2014-12-28 03:51:00,2447E-3,5C000000,-0724,0836,12071,028.0,045.4,0.451,736.6,01.18,0.508
2014-12-28 03:52:00,2583E-3,5C000000,-0724,0836,12225,028.0,045.4,0.450,736.6,01.18,0.508
2014-12-28 03:53:00,2477E-3,5C000000,-0724,0836,12254,028.1,045.4,0.451,736.6,01.18,0.508
2014-12-28 03:54:00,2460E-3,5C000000,-0724,0836,12123,028.1,045.4,0.450,736.5,01.18,0.508
2014-12-28 03:55:00,2383E-3,5C000000,-0724,0837,12114,028.2,045.4,0.450,736.6,01.18,0.508
2014-12-28 03:56:00,2376E-3,5C000000,-0724,0836,12212,028.2,045.4,0.450,736.5,01.18,0.508
2014-12-28 03:57:00,2512E-3,5C000000,-0724,0836,12245,028.1,045.4,0.450,736.6,01.18,0.508
2014-12-28 03:58:00,2539E-3,5C000000,-0724,0836,12082,028.1,045.4,0.450,736.6,01.18,0.508
2014-12-28 03:59:00,2372E-3,5C000000,-0724,0836,12157,028.1,045.4,0.450,736.6,01.18,0.508
2014-12-28 04:00:00,2377E-3,5C000000,-0724,0836,12227,028.0,045.4,0.450,736.6,01.18,0.508
2014-12-28 04:01:00,2509E-3,5C000000,-0724,0835,12101,028.0,045.4,0.450,736.7,01.18,0.508
2014-12-28 04:02:00,2470E-3,5C000000,-0724,0836,12186,028.0,045.4,0.450,736.7,01.18,0.508
2014-12-28 04:03:00,2575E-3,5C000000,-0724,0836,12192,028.0,045.4,0.450,736.7,01.18,0.508
2014-12-28 04:04:00,2425E-3,5C000000,-0724,0836,12145,028.0,045.4,0.450,736.7,01.18,0.508
2014-12-28 04:05:00,2345E-3,5C000000,-0724,0836,12308,028.0,045.4,0.450,736.6,01.18,0.508
2014-12-28 04:06:00,2485E-3,5C000000,-0724,0836,12176,027.9,045.4,0.450,736.6,01.18,0.508
2014-12-28 04:07:00,2300E-3,5C000000,-0724,0836,12309,027.9,045.4,0.450,736.6,01.18,0.508
2014-12-28 04:08:00,2396E-3,5C000000,-0724,0837,12173,027.9,045.4,0.451,736.6,01.18,0.508
2014-12-28 04:09:00,2405E-3,5C000000,-0724,0835,12231,027.9,045.4,0.450,736.6,01.18,0.508
2014-12-28 04:10:00,2493E-3,5C000000,-0724,0836,12255,027.9,045.4,0.450,736.6,01.18,0.508
2014-12-28 04:11:00,2507E-3,5C000000,-0724,0836,12150,027.8,045.4,0.451,736.6,01.18,0.508
2014-12-28 04:12:00,2367E-3,5C000000,-0724,0836,12342,027.9,045.4,0.451,736.6,01.18,0.508
2014-12-28 04:13:00,2387E-3,5C000000,-0724,0836,11953,027.9,045.4,0.450,736.6,01.18,0.508
2014-12-28 04:14:00,2276E-3,5C000000,-0724,0836,12088,027.9,045.4,0.450,736.6,01.18,0.508
2014-12-28 04:15:00,2368E-3,5C000000,-0724,0835,12062,027.9,045.4,0.451,736.6,01.18,0.508
2014-12-28 04:16:00,2498E-3,5C000000,-0724,0836,12235,027.8,045.4,0.450,736.6,01.18,0.508
2014-12-28 04:17:00,2377E-3,5C000000,-0724,0836,12049,027.8,045.4,0.450,736.6,01.18,0.508
2014-12-28 04:18:00,2458E-3,5C000000,-0724,0836,12019,027.8,045.4,0.450,736.6,01.18,0.508
2014-12-28 04:19:00,2389E-3,5C000000,-0724,0836,11935,027.8,045.4,0.451,736.6,01.18,0.508
2014-12-28 04:20:00,2495E-3,5C000000,-0724,0835,12083,027.9,045.4,0.450,736.6,01.18,0.508